Location: Newark
(41.0000°N, 28.9500°W)
Time: 01:11:32
(UTC+00:00)

N. Korean satellite - Pass Details

Date: 01 February 2020
Orbit: 456 x 505 km, 97.2° (Epoch: 27 February)

Event Time Altitude Azimuth Distance (km) Brightness Sun altitude
Rises 19:35:27 0° 194° (SSW) 2,460 10.6 -5.0°
Reaches altitude 10° 19:37:44 10° 209° (SSW) 1,594 9.9 -5.4°
Maximum altitude 19:40:33 24° 265° (W) 1,001 9.3 -5.9°
Drops below altitude 10° 19:43:25 10° 320° (NW) 1,618 9.5 -6.4°
Sets 19:45:46 0° 335° (NNW) 2,506 10.3 -6.8°
